DECAYED

OBJECT XT, 66907 (Decayed)

Orbit data source: Space-Track

You're viewing an uncataloged RSO

Recently launched and/or uncataloged RSOs may have evolving metadata. Metadata may include the following, but is not limited to: Owner, Manufacturer, Bus, Motor, and Mission.

OBJECT XT, 66907 was an American satellite in LEO that was delivered to and deployed from the ISS. Unknown objects in Earth's orbit typically refer to objects detected orbiting the Earth but have not yet been identified or cataloged. These objects could be anything from previously untracked satellites, spent rocket stages, debris from satellite collisions, or even natural meteoroids temporarily captured by Earth's gravity. This object's orbit decayed before it could be identified.

Not visible in the next 10 days
Identifier
66907, 1998-067XT
Orbit
Decayed
Country
Flag of USUS
Related business
None
Manufacturer
Unknown
Mission
Decayed Amateur Technology
Bus & Motor
Unknown
Mass
Unknown
Launch date (UTC)
1998-11-20 (28 years ago)
Launch vehicle
FALCON 9
Launch site
Tyuratam Missile And Space Complex (TTMTR)
Object type
Unknown
Shape & HBR
Box + 1 Ant, 0.3 m
Radar Cross Section
0.030 m², Medium (>0.1 m² and < 1m²)

Expand to show TLE details & history
Last TLE update: 4 months ago

TLE from 4 months ago
0 OBJECT XT
1 66907U 98067XT  26128.21918861  .06415295  12161-4  11530-2 0  9992
2 66907  51.6020 114.6844 0001520 244.6661 115.4205 16.31761416 24627
Epoch: 2026-05-08T05:15Z
TLE epoch observation values (Epoch: 2026-05-08T05:15:37.895Z)
Latitude
-0.00001°
Longitude
169.72238°
Altitude
189.002 km
Speed
7.794 km/s
True Right ascension
07h 38m 44s
True Declination
0° 00' 00"
Sunlit
Object was in daylight at epoch
Visualization orbit readout
Latitude
Unknown
Longitude
Unknown
Altitude
Unknown
Speed
Unknown
Apparent Right ascension
Unknown
Apparent Declination
Unknown
Sunlit
N/A
Visualization observer readout
Local Sidereal Time
08:47:27
Azimuth
Unknown
Elevation
Unknown
Doppler factor
Unknown
Orbital elements
Apogee altitude
189.34 km
Perigee altitude
187.344 km
Semi-major axis
6,566.479 km
Eccentricity
0.00015
Inclination
51.602°
RAAN
114.6844°
Arg. of periapsis
244.6661°
True anomaly
115.43623°
Mean anomaly
115.4205°
Eccentric anomaly
115.42837°
Mean motion
4.07891 °/min
Orbital period
88.26 mins
BSTAR
0.001153
Loading maneuver chart data...
Computing Atmospheric mass density...

Documentation

Showing up to 5 results
|